Location: Hilton Head Island
(32.2163°N, 80.7526°W)
Time: 13:48:46
(UTC-04:00)

Explorer 7 - Pass Details

Date: 20 February 2026
Orbit: 430 x 541 km, 50.2° (Epoch: 12 March)

Event Time Altitude Azimuth Distance (km) Brightness Sun altitude
Rises 12:00:13 0° 180° (S) 2,376 10.8 46.2°
Reaches altitude 10° 12:03:55 10° 138° (SE) 1,520 9.9 46.3°
Maximum altitude 12:04:36 11° 126° (SE) 1,495 9.7 46.4°
Drops below altitude 10° 12:05:17 10° 115° (ESE) 1,526 9.6 46.4°
Sets 12:09:03 0° 73° (ENE) 2,416 10.1 46.5°
